Home > Weather > Trenton > Past weeks

Flag for U.S.A. Weather for the Past 2 Weeks in Trenton, New Jersey, U.S.A.

Now
34 °F

Clear.


Feels Like: 31 °F
Forecast: 26 / 45 °F
Wind: 3 mph from Southwest

Location: Mercer County Airport

Current Time: Feb 6, 2016 at 8:26:57 PM

Latest Report: Feb 6, 2016 at 7:53 PM


Visibility: 10 mi

Pressure: 30.28 "Hg

Humidity: 56%

Dew point: 20 °F

Location of TrentonLocation

Historic Weather in Trenton — Graph

°F

Trenton Temperature Yesterday

Maximum temperature yesterday: 41 °F (at 12:53 AM)
Minimum temperature yesterday: 30 °F (at 11:53 PM)
Average temperature yesterday: 35 °F

High & Low Weather Summary for the Past Weeks

 TemperatureHumidityPressure
High59 °F (Feb 3, 2:53 PM)100% (Feb 3, 4:53 PM)30.42 "Hg (Feb 3, 4:53 PM)
Low15 °F (Jan 25, 6:53 AM)36% (Feb 2, 3:53 PM)29.48 "Hg (Jan 29, 7:53 AM)
Average36 °F66%29.99 "Hg
* Reported Jan 22 6:53 PM — Feb 6 6:53 PM, Trenton, Weather by CustomWeather, © 2016

Note: Actual official high and low records may vary slightly from our data, if they occured in-between our weather recording intervals... More about our weather records

Advertising

Trenton Weather History for the Previous 24 Hours

 ConditionsComfort  
Time TempWeatherWind HumidityBarometerVisibility
6:53 PM
Sat, Feb 6
36 °FClear.3 mph52%30.28 "Hg10 mi
5:53 PM37 °FClear.No wind50%30.27 "Hg10 mi
4:53 PM39 °FSunny.7 mph45%30.27 "Hg10 mi
3:53 PM40 °FSunny.13 mph43%30.28 "Hg10 mi
2:53 PM40 °FSunny.13 mph47%30.29 "Hg10 mi
1:53 PM39 °FSunny.9 mph45%30.31 "Hg10 mi
12:53 PM40 °FSunny.7 mph47%30.34 "Hg10 mi
11:53 AM38 °FSunny.9 mph51%30.39 "Hg10 mi
10:53 AM35 °FSunny.5 mph50%30.41 "Hg10 mi
9:53 AM32 °FSunny.No wind69%30.42 "Hg10 mi
8:53 AM28 °FSunny.No wind81%30.42 "Hg10 mi
7:53 AM22 °FSunny.No wind85%30.41 "Hg10 mi
6:53 AM22 °FClear.No wind85%30.40 "Hg10 mi
5:53 AM23 °FClear.No wind81%30.39 "Hg10 mi
4:53 AM24 °FClear.No wind77%30.37 "Hg10 mi
3:53 AM25 °FClear.No wind75%30.35 "Hg10 mi
2:53 AM25 °FClear.No wind72%30.35 "Hg10 mi
1:53 AM24 °FClear.No wind75%30.35 "Hg10 mi
12:53 AM28 °FClear.3 mph66%30.35 "Hg10 mi
11:53 PM
Fri, Feb 5
30 °FClear.No wind59%30.33 "Hg10 mi
10:53 PM31 °FClear.No wind57%30.32 "Hg10 mi
9:53 PM32 °FClear.7 mph52%30.32 "Hg10 mi
8:53 PM33 °FClear.7 mph49%30.31 "Hg10 mi
Weather by CustomWeather, © 2016

See weather overviewHow to use our weather pages